Wind_Speed
15 14 13 13 14 16 18 21 23 23 22 21 21 22 22 23 23 24 26 30 32 31 31 31 34 34 38 38 31 34 27 37 30 32 28 29 31 31 37 37 31 37 38
14 15 15 15 15 16 17 18 22 25 26 23 21 20 21 22 23 22 23 26 28 30 29 28 31 34 39 40 32 36 35 34 26 30 30 36 39 35 38 36 36 38 36
15 17 16 16 16 14 17 21 26 28 27 26 24 21 20 21 23 24 24 23 26 27 28 28 28 32 34 35 37 40 35 28 30 31 32 34 37 38 34 37 42 42 36
18 17 17 17 17 19 23 28 31 31 31 29 27 23 21 20 23 24 26 25 24 25 26 28 29 28 32 33 32 31 36 33 30 30 31 26 29 30 41 45 40 42 37
18 19 20 21 23 26 29 32 32 34 34 33 32 27 24 22 22 24 26 26 27 26 26 27 27 28 27 28 30 26 29 34 39 30 34 26 27 23 39 44 44 51 48
21 23 24 25 28 31 33 37 34 36 34 35 33 29 27 25 23 23 26 27 27 28 29 29 29 28 28 27 26 28 32 30 32 33 31 30 30 25 29 32 42 48 46
23 26 28 30 33 36 39 41 38 38 33 30 28 27 28 28 27 26 26 27 28 28 29 31 31 30 30 29 28 28 29 32 32 36 26 26 22 31 33 38 51 53 49
24 27 29 33 38 39 38 36 35 32 28 26 25 26 27 29 30 29 29 30 29 28 28 31 33 33 33 32 31 29 32 32 30 30 37 39 29 33 37 36 29 33 39
25 31 36 38 37 33 32 30 30 28 26 25 25 25 27 29 30 32 33 34 32 30 29 30 31 33 33 32 31 30 29 30 31 31 33 30 33 31 18 28 26 38 39
31 34 39 32 32 31 30 29 28 27 26 25 26 27 28 31 30 30 32 33 35 32 30 28 28 31 33 32 30 30 27 33 31 29 30 34 29 29 25 28 33 38 34
36 33 27 26 28 29 30 32 33 30 28 26 27 28 29 30 23 15 15 19 26 27 26 25 25 27 29 29 29 28 28 28 30 29 37 35 33 30 31 30 36 40 38
25 24 22 23 25 27 28 28 27 27 30 29 30 30 30 27 17 12 17 17 19 22 20 20 19 24 21 25 26 28 27 30 28 26 29 32 32 35 30 31 33 40 38
24 24 26 26 24 26 27 26 25 25 26 27 30 27 26 24 18 20 19 20 18 18 21 19 20 18 19 25 25 25 25 29 28 27 27 30 32 33 36 34 40 47 40
24 25 26 26 27 29 30 30 28 27 26 28 28 26 23 21 19 17 18 20 19 12 15 14 16 22 23 22 25 24 23 20 31 29 28 24 26 32 32 36 34 36 36
29 31 31 31 30 30 30 29 28 27 25 27 27 25 20 17 18 21 18 18 17 15 21 19 22 23 26 30 27 30 24 22 30 26 27 28 21 25 27 31 35 33 33
34 34 34 35 35 33 34 32 29 27 24 25 27 23 18 16 17 20 22 19 23 20 23 25 29 27 26 26 24 21 26 20 20 26 25 20 21 30 28 24 31 29 28
35 39 39 40 40 39 36 34 29 28 26 28 28 26 21 20 18 20 14 21 20 24 22 26 21 23 23 20 25 22 22 23 24 26 26 24 27 30 29 27 26 27 26
40 34 34 34 33 33 32 32 30 28 27 29 30 28 25 19 20 16 16 22 23 23 19 18 20 29 25 23 25 25 24 27 26 27 23 26 24 27 28 28 24 23 25
40 39 35 34 31 33 33 29 29 29 27 29 29 27 26 17 13 17 16 16 18 18 14 16 27 23 22 21 20 20 19 23 22 20 27 26 23 20 21 21 22 21 19
41 43 41 38 37 34 35 31 29 29 28 26 27 28 26 18 14 13 12 13 10 10 9 14 17 25 22 19 18 18 14 16 20 18 18 17 18 20 20 19 17 15 16
46 46 46 44 41 38 36 32 31 28 27 24 25 28 26 19 16 16 12 10 11 11 11 10 12 16 17 17 15 11 10 14 19 18 20 19 19 17 14 15 15 14 12
45 44 43 38 36 35 33 29 29 26 25 22 22 25 24 14 17 14 8 6 6 5 11 13 13 15 14 15 14 13 12 11 11 13 14 14 14 15 15 17 16 13 8
39 37 38 35 33 31 30 26 26 25 23 21 18 20 20 11 18 12 8 10 8 8 10 10 10 12 17 17 16 14 14 14 12 14 14 13 13 15 15 14 11 5 7
33 34 34 32 30 28 26 24 24 23 21 19 17 16 17 10 19 14 13 12 9 12 10 7 9 10 13 14 13 13 15 17 16 13 13 16 17 15 15 10 6 6 5
34 35 34 32 27 24 23 23 23 22 19 18 16 14 15 10 19 18 17 16 12 11 6 7 9 8 9 12 13 13 12 11 13 16 17 16 16 12 7 5 5 5 5
36 36 32 29 24 22 20 20 22 20 17 16 16 14 14 10 13 22 20 21 17 14 11 10 11 10 12 13 14 13 16 19 20 20 17 14 10 7 5 4 3 3 4
Wind_Direction
242 233 243 259 278 296 307 314 315 314 316 311 299 289 279 274 270 264 258 257 256 254 251 249 246 239 245 248 254 249 261 242 243 244 255 249 243 237 234 230 237 232 241
223 233 247 265 284 300 309 318 324 324 319 317 312 298 283 274 271 265 259 258 257 256 253 251 248 245 239 240 247 253 246 255 251 261 267 266 257 237 233 242 246 251 249
227 240 258 275 290 292 301 308 313 318 319 315 313 308 294 279 270 266 262 257 257 256 252 250 245 244 243 235 241 240 247 236 268 263 255 263 269 228 223 230 241 252 256
236 250 265 275 279 286 296 302 305 307 309 313 307 305 301 288 276 267 263 260 255 256 253 250 251 249 246 244 246 239 246 251 254 247 257 246 250 245 242 243 233 250 257
250 255 261 268 273 285 296 302 304 304 300 301 303 297 294 292 284 274 265 259 256 253 252 251 250 252 254 251 253 251 245 244 235 243 250 247 263 248 243 245 243 251 253
258 263 269 275 283 291 297 304 295 310 295 292 295 289 288 286 284 280 272 265 258 254 252 250 251 250 253 255 253 247 248 248 251 244 248 250 250 256 261 258 250 245 252
269 275 279 287 293 295 300 301 295 306 301 289 286 287 287 282 281 280 277 272 263 259 255 252 251 251 252 252 255 254 236 241 243 237 249 243 256 258 253 255 252 252 255
287 290 295 300 305 305 303 302 306 303 296 286 285 286 287 284 280 277 275 272 268 264 259 255 251 250 251 249 249 251 235 246 245 240 237 246 257 265 264 254 246 249 245
298 300 302 309 311 307 301 299 298 297 291 290 291 293 292 288 282 275 270 268 265 263 261 257 252 251 251 249 248 249 245 248 244 237 245 239 247 262 266 237 233 244 254
300 306 311 307 304 305 306 306 308 300 295 295 297 298 297 295 292 280 267 261 257 256 257 255 252 246 246 247 246 245 246 246 243 239 242 234 248 254 264 241 239 239 251
313 310 311 313 308 307 308 306 298 294 295 297 298 299 299 300 297 305 282 259 259 255 253 250 249 248 241 243 244 245 246 243 241 249 239 241 245 252 245 249 242 249 247
309 313 314 319 321 322 324 323 315 304 287 299 301 295 297 298 264 251 260 260 264 252 252 244 246 251 240 234 239 242 243 246 246 235 238 245 249 255 254 253 247 245 259
311 316 319 321 326 332 325 321 319 308 307 304 306 299 290 293 266 261 246 249 269 261 240 235 234 238 248 246 246 248 252 248 252 231 246 235 243 245 244 246 242 250 258
310 314 315 316 316 322 327 329 321 314 311 315 308 302 290 288 267 256 262 258 251 252 250 256 245 242 250 254 235 244 266 244 231 242 241 250 253 250 239 245 251 258 249
307 310 310 309 310 311 316 318 321 313 313 318 318 309 290 280 259 261 263 261 235 249 241 249 248 249 252 237 251 254 251 247 238 237 235 241 239 241 247 244 248 247 246
303 306 307 305 305 305 307 308 313 315 317 323 325 317 296 263 263 259 254 261 246 245 269 252 254 256 236 232 245 234 244 231 241 237 241 247 244 242 244 242 245 246 246
305 306 306 306 305 303 300 300 302 307 318 320 323 320 296 267 243 266 250 271 268 272 269 247 247 246 234 242 232 218 228 234 237 236 228 235 243 240 238 240 247 247 248
306 306 306 305 306 310 306 293 294 300 307 317 320 320 311 282 267 253 261 263 268 275 269 254 238 243 233 242 243 231 240 239 244 237 234 246 248 234 243 248 237 245 252
306 307 308 305 306 307 307 302 292 291 296 310 316 317 314 288 256 248 271 278 271 273 261 239 230 244 235 231 233 238 236 231 227 229 238 245 227 240 236 235 242 248 252
306 306 306 304 302 302 300 301 300 290 288 298 309 314 313 283 253 260 279 278 270 257 248 241 234 235 224 229 228 236 228 220 223 223 222 222 217 222 235 244 247 236 226
308 305 303 300 296 294 292 294 294 297 283 289 298 311 310 285 234 259 267 259 261 254 233 219 210 205 196 189 195 211 211 210 220 226 217 222 232 240 232 222 218 211 198
307 305 303 301 294 288 285 284 284 290 284 282 290 305 309 274 216 237 233 220 202 227 198 193 198 193 186 173 181 186 190 196 207 220 228 225 210 205 203 201 200 193 166
313 310 305 301 298 289 279 275 273 277 282 278 281 299 305 279 202 210 198 188 197 177 158 154 161 175 175 171 179 192 196 193 189 184 190 198 204 197 190 185 156 158 229
318 317 313 306 300 289 277 269 262 268 276 272 269 289 296 282 200 204 187 180 184 182 166 178 181 184 186 185 190 197 189 183 182 201 203 190 183 177 160 145 199 224 238
318 316 313 309 304 291 277 262 253 261 271 268 259 278 281 281 217 206 193 180 177 178 164 162 164 161 186 193 188 184 189 195 186 177 173 170 155 144 167 193 208 229 255
318 316 311 304 299 293 279 258 247 256 268 263 248 264 268 282 232 208 197 190 185 190 180 173 172 171 169 180 185 180 162 162 166 166 154 147 152 161 174 195 222 267 300
Height
3097 3098 3098 3098 3098 3097 3096 3094 3091 3089 3087 3084 3083 3082 3080 3080 3079 3079 3080 3081 3081 3084 3086 3087 3089 3092 3093 3097 3097 3100 3102 3102 3107 3109 3114 3116 3117 3119 3120 3121 3123 3127 3126
3096 3097 3096 3095 3095 3093 3092 3090 3088 3085 3083 3080 3078 3076 3075 3075 3074 3073 3074 3074 3075 3076 3079 3081 3083 3083 3084 3088 3091 3096 3096 3100 3102 3104 3107 3108 3112 3114 3115 3116 3118 3119 3121
3094 3094 3094 3093 3092 3090 3088 3087 3084 3082 3080 3077 3074 3072 3070 3069 3068 3068 3068 3069 3069 3070 3072 3074 3076 3078 3079 3081 3084 3088 3092 3091 3095 3100 3101 3101 3102 3105 3106 3110 3112 3113 3115
3092 3092 3092 3090 3088 3087 3085 3083 3081 3078 3076 3073 3070 3068 3066 3064 3063 3063 3062 3063 3064 3064 3065 3067 3069 3070 3073 3075 3077 3082 3084 3086 3090 3093 3095 3096 3096 3097 3100 3099 3103 3106 3108
3090 3090 3088 3087 3085 3083 3081 3078 3075 3073 3070 3067 3064 3063 3061 3059 3057 3057 3057 3057 3058 3059 3059 3061 3063 3065 3067 3069 3071 3073 3076 3080 3082 3085 3088 3089 3091 3093 3094 3095 3097 3099 3101
3086 3086 3085 3084 3081 3078 3075 3073 3069 3066 3062 3060 3058 3056 3054 3053 3052 3051 3050 3050 3051 3052 3053 3055 3056 3058 3060 3062 3066 3068 3069 3071 3074 3077 3081 3083 3086 3086 3088 3088 3090 3092 3094
3083 3081 3080 3079 3076 3073 3069 3066 3062 3059 3054 3052 3050 3049 3047 3046 3045 3044 3043 3043 3043 3044 3046 3047 3049 3051 3053 3056 3058 3060 3061 3064 3066 3070 3073 3077 3079 3080 3082 3084 3085 3086 3088
3078 3076 3075 3072 3069 3066 3062 3058 3055 3052 3049 3045 3044 3042 3040 3039 3038 3037 3036 3036 3036 3036 3038 3039 3041 3043 3046 3048 3051 3053 3055 3056 3058 3061 3064 3067 3072 3073 3074 3075 3077 3078 3081
3073 3071 3068 3065 3062 3058 3054 3050 3047 3044 3042 3040 3037 3035 3033 3031 3029 3028 3027 3027 3028 3029 3030 3031 3032 3034 3037 3041 3043 3045 3048 3050 3051 3054 3058 3061 3065 3066 3067 3069 3070 3075 3076
3068 3065 3061 3058 3055 3052 3048 3045 3041 3037 3035 3033 3030 3028 3026 3022 3019 3017 3016 3017 3018 3020 3022 3024 3024 3027 3030 3033 3036 3038 3040 3043 3045 3048 3051 3055 3058 3060 3061 3065 3066 3068 3070
3061 3059 3056 3052 3049 3045 3041 3038 3035 3032 3030 3027 3024 3021 3019 3015 3011 3010 3008 3009 3011 3012 3014 3016 3017 3019 3022 3025 3028 3031 3034 3036 3038 3040 3044 3047 3051 3053 3055 3059 3061 3062 3064
3059 3055 3051 3048 3045 3041 3037 3032 3028 3025 3023 3020 3017 3014 3011 3008 3007 3006 3006 3006 3006 3006 3008 3010 3012 3014 3016 3019 3022 3025 3027 3029 3032 3035 3037 3040 3044 3046 3049 3052 3055 3056 3057
3054 3051 3047 3043 3040 3037 3033 3029 3025 3021 3018 3014 3010 3007 3004 3002 3001 3000 3001 3001 3002 3002 3004 3005 3007 3010 3012 3014 3016 3019 3021 3022 3025 3028 3032 3034 3036 3038 3042 3045 3047 3049 3050
3050 3047 3044 3040 3037 3033 3029 3024 3021 3016 3012 3008 3003 3000 2997 2995 2995 2995 2996 2996 2997 2998 3000 3002 3004 3005 3007 3008 3011 3013 3015 3017 3019 3022 3025 3028 3030 3032 3035 3038 3040 3042 3044
3046 3043 3039 3035 3032 3028 3025 3021 3017 3012 3007 3003 2998 2993 2991 2989 2990 2989 2990 2991 2992 2993 2995 2995 2997 2999 3001 3003 3005 3007 3009 3012 3015 3017 3019 3022 3025 3028 3029 3031 3034 3035 3038
3041 3037 3033 3029 3025 3022 3018 3015 3012 3008 3003 2999 2994 2989 2986 2985 2984 2985 2985 2986 2986 2987 2987 2988 2990 2992 2993 2997 2999 3002 3005 3007 3010 3013 3014 3018 3021 3022 3024 3026 3029 3031 3033
3034 3030 3026 3021 3017 3013 3010 3007 3005 3002 2998 2994 2990 2985 2982 2980 2979 2980 2979 2981 2981 2980 2979 2980 2983 2985 2987 2990 2994 2997 2999 3002 3004 3007 3009 3012 3015 3017 3019 3022 3024 3027 3029
3026 3022 3018 3015 3011 3006 3002 2999 2997 2996 2993 2989 2985 2981 2977 2974 2973 2974 2975 2975 2974 2973 2972 2974 2977 2979 2982 2985 2988 2992 2995 2996 2999 3002 3005 3008 3011 3013 3016 3018 3020 3023 3025
3018 3013 3010 3007 3004 2999 2995 2991 2990 2988 2986 2984 2981 2976 2972 2969 2969 2969 2970 2969 2968 2966 2966 2967 2971 2974 2977 2981 2984 2986 2989 2992 2995 2998 3002 3005 3007 3010 3012 3014 3016 3018 3020
3011 3005 3001 2999 2994 2992 2987 2985 2982 2981 2980 2978 2976 2972 2968 2965 2965 2965 2965 2965 2963 2963 2964 2965 2967 2971 2974 2977 2981 2983 2985 2988 2991 2995 2998 3001 3004 3007 3009 3011 3014 3015 3016
3000 2995 2990 2987 2984 2980 2978 2977 2975 2974 2972 2971 2970 2967 2963 2960 2961 2962 2962 2961 2961 2961 2962 2964 2965 2968 2970 2974 2977 2980 2982 2985 2989 2992 2996 2999 3002 3004 3006 3008 3010 3013 3014
2989 2984 2977 2974 2971 2968 2967 2967 2967 2966 2965 2965 2964 2962 2959 2956 2957 2958 2959 2960 2960 2960 2960 2963 2964 2967 2970 2972 2976 2979 2982 2985 2989 2992 2994 2997 3000 3001 3003 3006 3008 3011 3014
2978 2973 2967 2964 2961 2958 2956 2957 2958 2959 2959 2959 2959 2958 2955 2952 2954 2956 2957 2959 2960 2961 2962 2963 2965 2967 2970 2972 2975 2978 2981 2984 2987 2990 2993 2995 2998 3000 3003 3006 3009 3012 3013
2969 2965 2960 2955 2952 2949 2948 2948 2950 2952 2953 2953 2954 2953 2952 2949 2952 2954 2955 2957 2960 2961 2963 2965 2966 2968 2970 2973 2976 2978 2980 2983 2986 2990 2992 2994 2997 3001 3003 3007 3009 3010 3012
2963 2958 2953 2948 2945 2941 2940 2941 2942 2945 2947 2948 2949 2949 2948 2947 2948 2952 2954 2956 2959 2962 2964 2965 2967 2969 2971 2973 2976 2979 2982 2984 2987 2990 2993 2997 3000 3003 3005 3007 3008 3009 3010
2956 2951 2945 2940 2938 2935 2934 2935 2937 2939 2941 2943 2944 2945 2944 2944 2944 2948 2951 2954 2957 2960 2962 2964 2967 2969 2971 2973 2976 2979 2982 2985 2989 2992 2995 2998 3001 3003 3005 3006 3007 3008 3008